Home   Weather   Nampula   Past weeks

Flag for Mozambique Past Weather in Nampula, Mozambique — Yesterday and Last 2 Weeks

Now
72 °F

Passing clouds.


Feels Like: 71 °F
Forecast: 66 / 88 °F
Wind: N/A

Location: Nampula Airport

Current Time: Sep 26, 2016 at 10:53:19 PM

Latest Report: Sep 26, 2016 at 10:00 PM


Visibility: N/A

Pressure: 30.07 "Hg

Humidity: 83%

Dew Point: 66 °F

Location of NampulaLocation

Past Weather in Nampula — Graph

°F

Nampula Temperature Yesterday

Maximum temperature yesterday: 91 °F (at 1:00 PM)
Minimum temperature yesterday: 66 °F (at 5:00 AM)
Average temperature yesterday: 82 °F

High & Low Weather Summary for the Past Weeks

 TemperatureHumidityPressure
High91 °F (Sep 17, 2:00 PM)100% (Sep 13, 5:00 AM)30.27 "Hg (Sep 13, 5:00 AM)
Low64 °F (Sep 13, 5:00 AM)27% (Sep 25, 11:00 AM)29.92 "Hg (Sep 24, 3:00 PM)
Average78 °F60%30.07 "Hg
* Reported Sep 11 9:00 PM — Sep 26 9:00 PM, Nampula, Weather by CustomWeather, © 2016

Note: Actual official high and low records may vary slightly from our data, if they occured in-between our weather recording intervals... More about our weather records

Advertising

Nampula Weather History for the Previous 24 Hours

Scroll right to see more
 ConditionsComfort  
Time TempWeatherWind HumidityBarometerVisibility
9:00 PM
Mon, Sep 26
73 °FClear.N/A78%30.07 "Hg10 mi
8:00 PM77 °FClear.N/A65%30.07 "Hg10 mi
7:00 PM79 °FClear.N/A51%30.07 "Hg10 mi
6:00 PM84 °FPassing clouds.N/A45%30.01 "HgN/A
5:00 PM88 °FScattered clouds.N/A38%29.98 "HgN/A
4:00 PM88 °FBroken clouds.N/A38%29.98 "HgN/A
3:00 PM88 °FBroken clouds.N/A38%29.98 "HgN/A
2:00 PM88 °FScattered clouds.N/A43%30.01 "HgN/A
1:00 PM88 °FPassing clouds.N/A38%30.04 "HgN/A
12:00 PM86 °FPassing clouds.N/A43%30.07 "HgN/A
11:00 AM82 °FPassing clouds.N/A45%30.09 "HgN/A
10:00 AM81 °FScattered clouds.N/A54%30.12 "HgN/A
9:00 AM77 °FScattered clouds.N/A65%30.12 "HgN/A
8:00 AM73 °FBroken clouds.N/A78%30.12 "HgN/A
7:00 AM72 °FPartly sunny.N/A83%30.09 "HgN/A
6:00 AM70 °FFog.N/A83%30.07 "Hg4 mi
5:00 AM68 °FPassing clouds.N/A94%30.07 "HgN/A
4:00 AM68 °FOvercast.N/A88%30.04 "HgN/A
11:00 PM
Sun, Sep 25
72 °FClear.N/A88%30.04 "Hg10 mi
10:00 PM73 °FClear.N/A83%30.04 "Hg10 mi
Weather by CustomWeather, © 2016

See weather overviewHow to use our weather pages